GW6887 Weather Reports


time (UTC)temp
C
wind
direction
speed
KPH
gust
KPH
rain 1hr
cm
rain 24hr
cm
rain mn
cm
humidity
%
barometer
mb
20260901181703 29 212 11.3 19.3 0.00 0.33 0.00 80 1015.5
20260901181205 29 223 8.0 19.3 0.00 0.33 0.00 80 1015.6
20260901180204 28 270 6.4 12.9 0.00 0.33 0.00 81 1015.6
20260901175704 28 189 4.8 14.5 0.00 0.33 0.00 82 1015.7
20260901175204 28 218 8.0 14.5 0.00 0.33 0.00 82 1015.8
20260901174204 29 218 8.0 14.5 0.00 0.33 0.00 81 1015.8
20260901173705 29 263 4.8 16.1 0.00 0.33 0.00 81 1015.8
20260901173204 29 217 9.7 16.1 0.00 0.33 0.00 80 1015.8
20260901172704 28 212 4.8 9.7 0.00 0.33 0.00 81 1015.7
20260901172205 28 225 4.8 11.3 0.00 0.33 0.00 81 1015.7
20260901171204 28 212 4.8 12.9 0.00 0.33 0.00 81 1015.7
20260901165704 28 238 4.8 11.3 0.00 0.33 0.00 80 1015.7
20260901165204 28 176 3.2 16.1 0.00 0.33 0.00 81 1015.6
20260901164703 28 212 6.4 16.1 0.00 0.33 0.00 80 1015.6
20260901164206 28 232 4.8 9.7 0.00 0.33 0.00 81 1015.7
20260901163707 28 206 3.2 9.7 0.00 0.33 0.00 81 1015.7
20260901163206 28 264 3.2 9.7 0.00 0.33 0.00 82 1015.8
20260901162707 28 267 1.6 11.3 0.00 0.33 0.00 81 1015.9
20260901162207 28 209 8.0 14.5 0.00 0.33 0.00 82 1015.9
20260901161707 28 222 4.8 14.5 0.00 0.33 0.00 81 1015.9
20260901161206 28 198 4.8 12.9 0.00 0.33 0.00 82 1015.9
20260901160707 28 204 4.8 11.3 0.00 0.33 0.00 82 1015.9
20260901160208 28 224 3.2 9.7 0.00 0.33 0.00 82 1015.9
20260901155707 28 250 3.2 11.3 0.00 0.33 0.00 82 1016.0
20260901155207 28 221 3.2 11.3 0.00 0.33 0.00 81 1016.0
20260901154207 27 185 0.0 8.0 0.00 0.33 0.00 82 1016.0
20260901153707 27 215 4.8 9.7 0.00 0.33 0.00 82 1015.9
20260901153208 27 209 3.2 4.8 0.00 0.33 0.00 83 1015.9
20260901152707 26 218 3.2 9.7 0.00 0.33 0.00 84 1015.9
20260901152207 26 305 6.4 9.7 0.00 0.33 0.00 85 1015.9
20260901151707 26 213 3.2 8.0 0.00 0.33 0.00 85 1016.0
20260901151207 26 282 3.2 11.3 0.00 0.33 0.00 86 1015.9
20260901150706 26 205 3.2 11.3 0.00 0.33 0.00 86 1015.9
20260901150207 26 224 4.8 9.7 0.00 0.36 0.00 86 1016.0
20260901145707 26 320 3.2 11.3 0.00 0.36 0.00 87 1016.0
20260901145206 26 318 4.8 11.3 0.00 0.36 0.00 87 1016.0
20260901144707 26 228 1.6 9.7 0.00 0.36 0.00 87 1016.0
20260901144207 25 224 8.0 14.5 0.00 0.36 0.00 87 1016.0
20260901143707 25 225 3.2 8.0 0.00 0.36 0.00 87 1016.0
20260901143207 25 320 3.2 8.0 0.00 0.36 0.00 88 1016.0
20260901142706 25 303 3.2 9.7 0.00 0.36 0.00 88 1016.0
20260901142207 25 294 3.2 9.7 0.00 0.38 0.00 88 1016.0
20260901141707 25 251 3.2 8.0 0.00 0.48 0.00 89 1016.0
20260901140706 24 318 3.2 8.0 0.00 0.48 0.00 89 1016.0
20260901135707 24 212 4.8 11.3 0.00 0.58 0.00 90 1016.0
20260901135206 24 201 3.2 9.7 0.00 0.58 0.00 90 1015.9
20260901134207 23 294 1.6 9.7 0.00 0.58 0.00 90 1015.9
20260901133707 23 218 4.8 9.7 0.00 0.58 0.00 90 1015.9
20260901133206 23 232 1.6 8.0 0.00 0.58 0.00 91 1015.9
20260901132206 23 232 3.2 8.0 0.00 0.64 0.00 92 1016.0
20260901131706 23 216 4.8 9.7 0.00 0.64 0.00 93 1015.9
20260901131206 22 205 4.8 9.7 0.00 0.64 0.00 94 1015.9
20260901130707 22 213 4.8 9.7 0.00 0.64 0.00 95 1015.9
20260901130206 22 223 3.2 8.0 0.00 0.66 0.00 95 1015.9
20260901125706 22 225 4.8 11.3 0.00 0.66 0.00 96 1016.0
20260901125206 22 222 4.8 11.3 0.00 0.66 0.00 97 1016.0
20260901124708 22 212 3.2 11.3 0.00 0.66 0.00 97 1015.9
20260901124206 22 213 3.2 8.0 0.00 0.66 0.00 98 1016.0
20260901123706 22 216 4.8 8.0 0.00 0.66 0.00 98 1015.9
20260901123206 21 216 1.6 4.8 0.00 0.66 0.00 98 1015.8
20260901122706 21 185 0.0 1.6 0.00 0.69 0.00 98 1015.8
20260901122207 21 207 0.0 1.6 0.00 0.69 0.00 98 1015.9
20260901121706 21 256 0.0 3.2 0.00 0.69 0.00 98 1015.9
20260901121206 21 257 0.0 1.6 0.00 0.69 0.00 98 1015.9
20260901120706 21 266 0.0 1.6 0.00 0.69 0.00 98 1015.8
20260901120206 21 200 0.0 1.6 0.00 0.69 0.00 98 1015.5
20260901115206 21 158 1.6 1.6 0.00 0.69 0.00 98 1015.5
20260901113706 20 167 0.0 3.2 0.00 0.69 0.00 98 1015.2
20260901113206 21 173 0.0 3.2 0.00 0.69 0.00 98 1015.1
20260901112706 20 160 0.0 1.6 0.00 0.69 0.00 98 1015.1
20260901112206 20 187 0.0 1.6 0.00 0.69 0.00 98 1015.1
20260901111705 20 172 0.0 3.2 0.00 0.69 0.00 97 1015.1
20260901111206 20 160 1.6 3.2 0.00 0.69 0.00 97 1015.0
20260901110706 20 160 0.0 1.6 0.00 0.69 0.00 97 1015.1
20260901110206 20 216 0.0 1.6 0.00 0.69 0.00 97 1015.1
20260901105706 20 247 0.0 1.6 0.00 0.69 0.00 97 1015.0
20260901105206 20 159 1.6 1.6 0.00 0.69 0.00 97 1015.0
20260901104706 20 254 0.0 1.6 0.00 0.69 0.00 97 1015.1
20260901103206 20 150 0.0 3.2 0.00 0.69 0.00 97 1014.8
20260901102706 20 138 0.0 1.6 0.00 0.69 0.00 97 1014.9
20260901102206 20 160 1.6 3.2 0.00 0.69 0.00 97 1014.9
20260901101206 20 193 0.0 1.6 0.00 0.69 0.00 97 1015.0
20260901100706 20 198 0.0 3.2 0.00 0.69 0.00 97 1015.0
20260901100206 20 163 1.6 3.2 0.00 0.69 0.00 97 1014.9
20260901095706 20 162 1.6 3.2 0.00 0.69 0.00 97 1014.9
20260901094706 20 233 0.0 1.6 0.00 0.69 0.00 97 1014.9
20260901094205 20 148 1.6 3.2 0.00 0.69 0.00 97 1014.8
20260901093706 21 157 0.0 3.2 0.00 0.69 0.00 97 1014.9
20260901093206 21 169 0.0 3.2 0.00 0.69 0.00 97 1014.9
20260901092705 21 167 0.0 1.6 0.00 0.69 0.00 97 1014.9
20260901092207 21 174 0.0 1.6 0.00 0.69 0.00 97 1014.9
20260901091705 21 166 0.0 1.6 0.00 0.69 0.00 97 1014.9
20260901090206 21 158 1.6 3.2 0.00 0.69 0.00 97 1014.9
20260901085707 21 181 0.0 1.6 0.00 0.69 0.00 97 1014.9
20260901084706 21 170 0.0 1.6 0.00 0.69 0.00 97 1014.8
20260901083706 21 166 0.0 1.6 0.00 0.69 0.00 96 1014.7
20260901083206 21 152 0.0 1.6 0.00 0.69 0.00 96 1014.7
20260901082706 21 222 0.0 1.6 0.00 0.69 0.00 96 1014.8
20260901082206 21 256 0.0 3.2 0.00 0.69 0.00 96 1014.8
20260901081706 21 199 0.0 3.2 0.00 0.69 0.00 96 1014.8
20260901081206 21 219 0.0 1.6 0.00 0.69 0.00 96 1014.8
20260901080206 21 147 0.0 3.2 0.00 0.69 0.00 96 1014.8
20260901075706 21 215 1.6 4.8 0.00 0.69 0.00 96 1014.8
20260901075206 21 209 1.6 3.2 0.00 0.69 0.00 96 1014.7
20260901074706 21 182 1.6 3.2 0.00 0.69 0.00 96 1014.6
20260901074206 21 186 1.6 8.0 0.00 0.69 0.00 96 1014.7
20260901073705 21 170 0.0 3.2 0.00 0.69 0.00 96 1014.7
20260901073205 21 158 1.6 3.2 0.00 0.69 0.00 96 1014.7
20260901072705 21 159 1.6 3.2 0.00 0.69 0.00 96 1014.6
20260901072206 21 167 0.0 3.2 0.00 0.69 0.00 96 1014.6
20260901071705 21 172 0.0 3.2 0.00 0.69 0.00 96 1014.6
20260901071206 21 175 1.6 3.2 0.00 0.69 0.00 96 1014.6
20260901065706 21 157 1.6 3.2 0.00 0.69 0.00 95 1014.7
20260901065206 21 165 0.0 3.2 0.00 0.69 0.00 95 1014.7
20260901064705 21 67 0.0 1.6 0.00 0.69 0.00 95 1014.7
20260901064205 21 177 0.0 1.6 0.00 0.69 0.00 95 1014.7
20260901062706 21 154 0.0 1.6 0.00 0.69 0.00 95 1014.7
20260901062207 21 172 0.0 1.6 0.00 0.69 0.00 94 1014.7
20260901061705 21 198 0.0 1.6 0.00 0.69 0.00 94 1014.7
20260901061206 21 199 0.0 1.6 0.00 0.69 0.00 94 1014.7
20260901060705 21 179 0.0 1.6 0.00 0.69 0.00 94 1014.8
20260901060206 21 179 0.0 1.6 0.00 0.69 0.00 94 1014.8
20260901055206 21 198 0.0 1.6 0.00 0.69 0.00 94 1014.9
20260901054206 22 221 0.0 1.6 0.00 0.69 0.00 93 1015.0
20260901053706 22 154 0.0 3.2 0.00 0.69 0.00 93 1015.0
20260901053205 22 238 1.6 3.2 0.00 0.69 0.00 93 1015.0
20260901052705 22 247 1.6 3.2 0.00 0.69 0.00 93 1014.9
20260901052205 22 264 0.0 4.8 0.00 0.69 0.00 92 1014.9
20260901051705 22 219 3.2 4.8 0.00 0.69 0.00 93 1014.9
20260901051205 22 218 3.2 4.8 0.00 0.69 0.00 93 1014.9
20260901050705 22 220 1.6 3.2 0.00 0.69 0.00 93 1014.9
20260901050205 22 184 1.6 3.2 0.00 0.69 0.00 93 1014.9
20260901045707 22 189 1.6 8.0 0.30 0.69 0.00 92 1014.9
20260901045207 22 210 1.6 3.2 0.30 0.69 0.00 92 1014.9
20260901044205 22 226 0.0 3.2 0.30 0.69 0.00 92 1014.9
20260901043706 22 231 0.0 3.2 0.30 0.69 0.00 92 1014.9
20260901042706 22 178 1.6 3.2 0.30 0.69 0.00 91 1014.9
20260901042205 22 229 0.0 3.2 0.30 0.69 0.00 91 1014.9
20260901041206 23 177 0.0 1.6 0.30 0.69 0.00 90 1015.0
20260901040205 23 157 0.0 1.6 0.30 0.69 0.00 89 1015.1
20260901035706 23 258 0.0 3.2 0.00 0.38 0.30 89 1015.2
20260901035205 23 237 3.2 8.0 0.00 0.38 0.30 88 1015.1
20260901034705 23 243 3.2 8.0 0.00 0.38 0.30 88 1015.1
20260901034205 23 213 3.2 8.0 0.00 0.38 0.30 88 1015.2
20260901033705 23 210 3.2 4.8 0.00 0.38 0.30 88 1015.2
20260901033207 23 258 1.6 4.8 0.00 0.38 0.30 88 1015.2
20260901032205 23 206 1.6 4.8 0.00 0.38 0.30 87 1015.1
20260901031706 24 226 3.2 8.0 0.00 0.38 0.30 87 1015.2
20260901031205 24 203 3.2 4.8 0.00 0.38 0.30 86 1015.2
20260901030705 24 241 1.6 4.8 0.00 0.38 0.30 86 1015.2
20260901030206 24 250 3.2 4.8 0.00 0.38 0.30 85 1015.2
20260901025705 24 215 1.6 8.0 0.00 0.38 0.30 85 1015.2
20260901025205 24 227 1.6 8.0 0.00 0.38 0.30 85 1015.2
20260901024705 24 237 3.2 4.8 0.00 0.38 0.30 85 1015.2
20260901022204 24 172 1.6 8.0 0.00 0.38 0.30 86 1015.0
20260901021705 25 180 1.6 11.3 0.00 0.38 0.30 86 1014.9
20260901021205 25 191 1.6 9.7 0.00 0.38 0.30 85 1015.0
20260901020705 25 203 6.4 9.7 0.00 0.38 0.30 84 1015.0
20260901020205 25 203 3.2 8.0 0.00 0.38 0.30 84 1015.0
20260901015705 25 197 3.2 11.3 0.00 0.38 0.30 84 1015.0
20260901015205 25 194 4.8 9.7 0.00 0.38 0.30 84 1015.0
20260901014705 25 195 4.8 9.7 0.00 0.38 0.30 84 1015.0
20260901014205 25 176 1.6 4.8 0.00 0.38 0.30 84 1014.9
20260901013705 25 201 4.8 8.0 0.00 0.38 0.30 83 1015.0
20260901013205 25 194 3.2 8.0 0.00 0.38 0.30 83 1015.0
20260901012205 25 203 4.8 11.3 0.00 0.38 0.30 83 1015.0
20260901011705 25 203 4.8 9.7 0.00 0.38 0.30 83 1014.9
20260901011205 25 198 6.4 9.7 0.00 0.38 0.30 83 1014.9
20260901010705 25 226 4.8 11.3 0.00 0.38 0.30 83 1014.7
20260901010205 25 188 1.6 8.0 0.00 0.38 0.30 83 1014.5
20260901005705 25 187 4.8 9.7 0.00 0.38 0.30 83 1014.7
20260901005205 25 208 4.8 11.3 0.00 0.38 0.30 82 1014.8
20260901004705 25 199 6.4 9.7 0.00 0.38 0.30 82 1014.8
20260901004204 26 214 4.8 9.7 0.00 0.38 0.30 82 1014.9
20260901003705 26 197 6.4 9.7 0.00 0.38 0.30 82 1014.9
20260901003205 26 212 4.8 11.3 0.00 0.38 0.30 81 1014.9
20260901002704 26 217 8.0 12.9 0.00 0.38 0.30 81 1014.9
20260901002205 26 215 4.8 12.9 0.00 0.38 0.30 81 1014.8
20260901001705 26 217 6.4 14.5 0.00 0.38 0.30 80 1014.8
20260901001205 26 220 8.0 14.5 0.00 0.38 0.30 80 1014.7
20260901000705 26 206 8.0 16.1 0.00 0.38 0.30 79 1014.6
20260901000204 26 222 8.0 16.1 0.00 0.38 0.30 79 1014.6
20260831235704 26 226 8.0 19.3 0.00 0.38 0.30 78 1014.5
20260831234705 27 211 8.0 14.5 0.00 0.38 0.30 78 1014.4
20260831234205 27 214 9.7 16.1 0.00 0.38 0.30 77 1014.4
20260831233704 27 207 4.8 14.5 0.00 0.38 0.30 78 1014.4
20260831232704 27 211 8.0 14.5 0.00 0.38 0.30 79 1014.3
20260831231705 27 201 3.2 12.9 0.00 0.38 0.30 79 1014.4
20260831231205 27 218 8.0 16.1 0.00 0.38 0.30 79 1014.4
20260831230704 26 211 4.8 11.3 0.00 0.38 0.30 80 1014.5
20260831230204 27 188 3.2 9.7 0.00 0.38 0.30 80 1014.4
20260831225704 27 198 3.2 9.7 0.00 0.38 0.30 80 1014.4
20260831225204 27 210 3.2 9.7 0.00 0.38 0.30 79 1014.3
20260831224205 27 215 1.6 8.0 0.00 0.38 0.30 79 1014.2
20260831223705 27 179 1.6 8.0 0.00 0.38 0.30 78 1014.0
20260831223204 27 191 4.8 9.7 0.00 0.38 0.30 77 1014.1
20260831222705 27 169 1.6 8.0 0.00 0.38 0.30 77 1014.1
20260831222204 27 201 1.6 8.0 0.00 0.38 0.30 76 1014.2
20260831221704 27 209 6.4 16.1 0.00 0.38 0.30 74 1014.1
20260831220704 28 211 4.8 16.1 0.00 0.38 0.30 72 1014.1
20260831220204 28 199 6.4 14.5 0.00 0.38 0.30 73 1014.1
20260831215705 28 205 9.7 16.1 0.00 0.38 0.30 72 1014.1
20260831215204 28 206 6.4 16.1 0.00 0.38 0.30 72 1014.1
20260831214204 28 212 9.7 16.1 0.00 0.38 0.30 71 1014.1
20260831213705 28 207 4.8 14.5 0.00 0.38 0.30 72 1014.1
20260831213204 28 203 3.2 11.3 0.00 0.38 0.30 72 1014.3
20260831212705 27 229 4.8 12.9 0.00 0.38 0.30 73 1014.2
20260831211704 27 147 3.2 12.9 0.00 0.38 0.30 73 1014.2
20260831211205 27 197 8.0 14.5 0.00 0.38 0.30 73 1014.3
20260831210705 27 192 6.4 12.9 0.00 0.38 0.30 73 1014.2
20260831210204 27 197 6.4 12.9 0.00 0.38 0.30 73 1014.3
20260831205704 27 206 4.8 14.5 0.00 0.38 0.30 74 1014.3
20260831205204 27 146 4.8 14.5 0.00 0.38 0.30 75 1014.2
20260831204705 27 194 4.8 22.5 0.00 0.38 0.30 74 1014.3
20260831204204 27 185 4.8 22.5 0.00 0.38 0.30 75 1014.3
20260831203705 27 199 4.8 12.9 0.00 0.38 0.30 75 1014.2
20260831203204 27 174 8.0 16.1 0.00 0.38 0.30 76 1014.2
20260831202704 27 163 3.2 14.5 0.00 0.38 0.30 76 1014.3
20260831202205 26 198 4.8 19.3 0.00 0.38 0.30 75 1014.3
20260831201704 26 176 3.2 14.5 0.00 0.38 0.30 78 1014.2
20260831200705 26 211 8.0 20.9 0.00 0.38 0.30 79 1014.4
20260831200204 26 171 4.8 14.5 0.00 0.38 0.30 81 1014.4
20260831195704 26 201 4.8 11.3 0.03 0.38 0.30 81 1014.4
20260831195205 26 188 4.8 12.9 0.03 0.38 0.30 81 1014.5
20260831194705 26 182 4.8 12.9 0.03 0.38 0.30 81 1014.7
20260831194205 26 206 3.2 16.1 0.03 0.38 0.30 80 1014.7
20260831193705 26 221 4.8 14.5 0.03 0.38 0.30 80 1014.7
20260831192704 25 203 4.8 19.3 0.03 0.38 0.30 81 1014.9
20260831192204 24 189 3.2 11.3 0.03 0.38 0.30 86 1014.9
20260831191704 23 195 3.2 11.3 0.03 0.38 0.30 89 1015.0
20260831191205 23 187 1.6 8.0 0.03 0.38 0.30 88 1015.2
20260831190206 23 193 1.6 11.3 0.03 0.38 0.30 89 1015.4
20260831185704 23 210 4.8 11.3 0.00 0.36 0.28 89 1015.5
20260831185204 23 180 1.6 3.2 0.00 0.36 0.28 90 1015.5
20260831184704 23 171 1.6 4.8 0.00 0.36 0.28 88 1015.7
20260831184204 23 201 3.2 8.0 0.00 0.36 0.28 86 1015.9
20260831183704 23 222 0.0 4.8 0.00 0.36 0.28 86 1015.9
20260831183204 23 207 1.6 8.0 0.00 0.36 0.28 88 1015.5